JBU1730 KRSW-KJFK

Flight info

Callsign JBU1730
Flight time 2h 18m
Altitude 35000
Route CSHEL8 CAMJO/N0451F370 Q109 DFENC SAWED Q108 SIE CAMRN5
Aircraft A320/M-SDE3FGHIRWY/LB1

Departure

Time 2026-05-07 21:57
Airport Southwest Florida International Airport (KRSW)

Arrival

Time 2026-05-08 00:15
Airport John F. Kennedy International Airport (KJFK)
Time Latitude Longitude Altitude Speed Heading
2026-05-07 21:12 26.52850 -81.75787 39 ft 0 kts 54°
2026-05-07 21:23 26.52883 -81.75813 40 ft 0 kts 57°
2026-05-07 21:23 26.52951 -81.75872 38 ft 0 kts 91°
2026-05-07 21:45 26.52951 -81.75879 38 ft 3 kts 92°
2026-05-07 21:46 26.52952 -81.75902 38 ft 3 kts 93°
2026-05-07 21:46 26.52953 -81.75926 38 ft 3 kts 94°
2026-05-07 21:46 26.52955 -81.75948 38 ft 3 kts 92°
2026-05-07 21:46 26.52955 -81.75956 37 ft 3 kts 92°
2026-05-07 21:47 26.52948 -81.75952 37 ft 3 kts 143°
2026-05-07 21:47 26.52930 -81.75937 36 ft 3 kts 323°
2026-05-07 21:47 26.52913 -81.75924 36 ft 3 kts 326°
2026-05-07 21:47 26.52896 -81.75911 36 ft 3 kts 325°
2026-05-07 21:48 26.52889 -81.75905 36 ft 0 kts 324°
2026-05-07 21:50 26.52892 -81.75908 36 ft 2 kts 324°
2026-05-07 21:50 26.52915 -81.75926 36 ft 7 kts 325°
2026-05-07 21:50 26.52988 -81.75983 37 ft 15 kts 325°
2026-05-07 21:50 26.53075 -81.76054 36 ft 13 kts 326°
2026-05-07 21:51 26.53145 -81.76033 35 ft 13 kts 55°
2026-05-07 21:51 26.53199 -81.75947 36 ft 14 kts 54°
2026-05-07 21:51 26.53255 -81.75861 38 ft 15 kts 53°
2026-05-07 21:51 26.53327 -81.75750 38 ft 19 kts 55°
2026-05-07 21:52 26.53412 -81.75623 37 ft 21 kts 53°
2026-05-07 21:52 26.53497 -81.75491 36 ft 21 kts 53°
2026-05-07 21:52 26.53590 -81.75353 35 ft 23 kts 51°
2026-05-07 21:52 26.53682 -81.75209 34 ft 23 kts 55°
2026-05-07 21:53 26.53779 -81.75060 37 ft 24 kts 53°
2026-05-07 21:53 26.53872 -81.74915 37 ft 22 kts 53°
2026-05-07 21:53 26.53966 -81.74771 40 ft 23 kts 55°
2026-05-07 21:53 26.54058 -81.74629 38 ft 23 kts 55°
2026-05-07 21:54 26.54154 -81.74482 39 ft 17 kts 54°
2026-05-07 21:54 26.54224 -81.74374 39 ft 18 kts 53°
2026-05-07 21:54 26.54302 -81.74249 36 ft 21 kts 56°
2026-05-07 21:54 26.54379 -81.74136 40 ft 11 kts 53°
2026-05-07 21:55 26.54430 -81.74057 40 ft 14 kts 56°
2026-05-07 21:55 26.54485 -81.73993 40 ft 9 kts
2026-05-07 21:55 26.54547 -81.74015 39 ft 11 kts 326°
2026-05-07 21:55 26.54551 -81.74094 37 ft 10 kts 233°
2026-05-07 21:56 26.54548 -81.74098 38 ft 4 kts 233°
2026-05-07 21:56 26.54394 -81.74334 34 ft 72 kts 233°
2026-05-07 21:56 26.53985 -81.74957 38 ft 125 kts 234°
2026-05-07 21:56 26.53384 -81.75875 56 ft 164 kts 236°
2026-05-07 21:57 26.52725 -81.76860 660 ft 157 kts 234°
2026-05-07 21:57 26.52059 -81.77824 1221 ft 157 kts 237°
2026-05-07 21:57 26.51392 -81.78820 1608 ft 162 kts 236°
2026-05-07 21:57 26.50693 -81.79858 2034 ft 173 kts 236°
2026-05-07 21:58 26.50010 -81.81022 2394 ft 186 kts 248°
2026-05-07 21:58 26.49740 -81.82477 2712 ft 201 kts 270°
2026-05-07 21:58 26.49722 -81.84107 3110 ft 218 kts 269°
2026-05-07 21:58 26.49699 -81.85831 3647 ft 230 kts 276°
2026-05-07 21:59 26.50194 -81.87558 4149 ft 244 kts 301°
2026-05-07 21:59 26.51454 -81.88923 4650 ft 260 kts 332°
2026-05-07 21:59 26.53175 -81.89508 5431 ft 266 kts 347°
2026-05-07 21:59 26.55028 -81.89859 6162 ft 272 kts 349°
2026-05-07 22:00 26.56921 -81.90165 6870 ft 278 kts 350°
2026-05-07 22:00 26.58856 -81.90456 7524 ft 284 kts 350°
2026-05-07 22:00 26.60810 -81.90883 8165 ft 288 kts 343°
2026-05-07 22:00 26.62762 -81.91468 8807 ft 294 kts 347°
2026-05-07 22:01 26.64818 -81.91678 9452 ft 301 kts
2026-05-07 22:01 26.66887 -81.91461 10081 ft 306 kts
2026-05-07 22:01 26.69051 -81.91158 10361 ft 324 kts
2026-05-07 22:01 26.71358 -81.90795 10492 ft 345 kts
2026-05-07 22:02 26.73773 -81.90399 10879 ft 355 kts
2026-05-07 22:02 26.76213 -81.89915 11442 ft 359 kts 13°
2026-05-07 22:02 26.78564 -81.88921 12053 ft 363 kts 25°
2026-05-07 22:02 26.80770 -81.87520 12650 ft 366 kts 28°
2026-05-07 22:03 26.82989 -81.86094 13250 ft 369 kts 28°
2026-05-07 22:03 26.85227 -81.84666 13837 ft 371 kts 27°
2026-05-07 22:03 26.87451 -81.83250 14362 ft 374 kts 27°
2026-05-07 22:03 26.89718 -81.81805 14898 ft 376 kts 27°
2026-05-07 22:04 26.91995 -81.80349 15419 ft 379 kts 27°
2026-05-07 22:04 26.94305 -81.78913 15936 ft 381 kts 25°
2026-05-07 22:04 26.96665 -81.77548 16447 ft 383 kts 24°
2026-05-07 22:04 26.99092 -81.76309 16955 ft 383 kts 15°
2026-05-07 22:05 27.01677 -81.75637 17470 ft 381 kts
2026-05-07 22:05 27.04315 -81.75562 17996 ft 379 kts 352°
2026-05-07 22:05 27.06867 -81.76056 18501 ft 377 kts 340°
2026-05-07 22:05 27.09376 -81.76914 18971 ft 378 kts 339°
2026-05-07 22:06 27.11898 -81.77785 19447 ft 380 kts 339°
2026-05-07 22:06 27.14431 -81.78659 19913 ft 383 kts 339°
2026-05-07 22:06 27.16986 -81.79538 20393 ft 385 kts 339°
2026-05-07 22:06 27.19563 -81.80426 20864 ft 388 kts 339°
2026-05-07 22:07 27.22146 -81.81314 21338 ft 390 kts 338°
2026-05-07 22:07 27.24754 -81.82209 21803 ft 393 kts 338°
2026-05-07 22:07 27.27377 -81.83114 22254 ft 395 kts 338°
2026-05-07 22:07 27.29978 -81.84017 22706 ft 398 kts 338°
2026-05-07 22:08 27.32629 -81.84942 23145 ft 400 kts 338°
2026-05-07 22:08 27.35297 -81.85873 23574 ft 403 kts 338°
2026-05-07 22:08 27.37983 -81.86809 23928 ft 405 kts 338°
2026-05-07 22:08 27.40682 -81.87747 24282 ft 407 kts 338°
2026-05-07 22:09 27.43394 -81.88688 24633 ft 409 kts 338°
2026-05-07 22:09 27.46119 -81.89633 24977 ft 411 kts 338°
2026-05-07 22:09 27.48856 -81.90580 25320 ft 412 kts 337°
2026-05-07 22:09 27.51598 -81.91532 25666 ft 414 kts 337°
2026-05-07 22:10 27.54326 -81.92484 25995 ft 416 kts 337°
2026-05-07 22:10 27.57091 -81.93450 26309 ft 418 kts 337°
2026-05-07 22:10 27.59878 -81.94422 26633 ft 420 kts 337°
2026-05-07 22:10 27.62674 -81.95396 26950 ft 422 kts 337°
2026-05-07 22:11 27.65484 -81.96373 27260 ft 424 kts 337°
2026-05-07 22:11 27.68309 -81.97355 27568 ft 426 kts 337°
2026-05-07 22:11 27.71143 -81.98344 27885 ft 427 kts 337°
2026-05-07 22:11 27.73989 -81.99341 28203 ft 429 kts 337°
2026-05-07 22:12 27.76847 -82.00341 28521 ft 431 kts 337°
2026-05-07 22:12 27.79683 -82.01328 28824 ft 433 kts 337°
2026-05-07 22:12 27.82576 -82.02314 29133 ft 435 kts 338°
2026-05-07 22:12 27.85488 -82.03290 29436 ft 437 kts 338°
2026-05-07 22:13 27.88415 -82.04262 29749 ft 439 kts 338°
2026-05-07 22:13 27.91354 -82.05237 30090 ft 440 kts 338°
2026-05-07 22:13 27.94287 -82.06215 30474 ft 439 kts 338°
2026-05-07 22:13 27.97205 -82.07194 30850 ft 437 kts 337°
2026-05-07 22:14 28.00085 -82.08164 31216 ft 436 kts 337°
2026-05-07 22:14 28.02993 -82.09147 31598 ft 435 kts 337°
2026-05-07 22:14 28.05891 -82.10127 31995 ft 434 kts 337°
2026-05-07 22:14 28.08832 -82.10945 32376 ft 439 kts 345°
2026-05-07 22:15 28.11888 -82.11306 32763 ft 442 kts 348°
2026-05-07 22:15 28.14952 -82.11601 33147 ft 441 kts 348°
2026-05-07 22:15 28.18010 -82.11892 33549 ft 440 kts 348°
2026-05-07 22:15 28.20026 -82.12082 33806 ft 440 kts 348°
2026-05-07 22:16 28.23074 -82.12371 34180 ft 439 kts 348°
2026-05-07 22:16 28.27093 -82.12758 34607 ft 437 kts 348°
2026-05-07 22:16 28.30118 -82.13053 34922 ft 436 kts 348°
2026-05-07 22:16 28.33145 -82.13347 35015 ft 437 kts 348°
2026-05-07 22:17 28.39222 -82.13935 35036 ft 439 kts 348°
2026-05-07 22:17 28.44286 -82.14425 35033 ft 439 kts 348°
2026-05-07 22:18 28.53719 -82.17588 35033 ft 422 kts 330°
2026-05-07 22:19 28.59127 -82.20210 35035 ft 422 kts 330°
2026-05-07 22:19 28.63622 -82.22388 35041 ft 422 kts 330°
2026-05-07 22:20 28.69900 -82.25437 35053 ft 422 kts 330°
2026-05-07 22:20 28.75298 -82.28069 35055 ft 422 kts 330°
2026-05-07 22:21 28.79785 -82.30255 35058 ft 422 kts 330°
2026-05-07 22:21 28.85175 -82.32886 35058 ft 421 kts 330°
2026-05-07 22:22 28.91433 -82.35949 35061 ft 421 kts 330°
2026-05-07 22:22 28.95939 -82.38151 35057 ft 420 kts 330°
2026-05-07 22:23 29.01280 -82.40768 35057 ft 420 kts 330°
2026-05-07 22:23 29.06652 -82.43400 35047 ft 420 kts 330°
2026-05-07 22:24 29.12888 -82.46458 35047 ft 419 kts 329°
2026-05-07 22:24 29.17376 -82.48664 35047 ft 419 kts 329°
2026-05-07 22:25 29.22701 -82.51284 35049 ft 419 kts 329°
2026-05-07 22:25 29.28393 -82.53080 35047 ft 435 kts 346°
2026-05-07 22:26 29.34419 -82.53819 35045 ft 436 kts 345°
2026-05-07 22:26 29.40447 -82.54581 35046 ft 436 kts 345°
2026-05-07 22:27 29.46428 -82.55341 35042 ft 436 kts 345°
2026-05-07 22:27 29.52468 -82.56107 35042 ft 436 kts 345°
2026-05-07 22:28 29.58500 -82.56870 35038 ft 436 kts 345°
2026-05-07 22:28 29.64534 -82.57631 35037 ft 436 kts 345°
2026-05-07 22:29 29.70577 -82.58390 35036 ft 436 kts 345°
2026-05-07 22:29 29.76564 -82.59154 35033 ft 436 kts 345°
2026-05-07 22:30 29.82597 -82.59919 35033 ft 436 kts 345°
2026-05-07 22:30 29.88634 -82.60683 35023 ft 436 kts 345°
2026-05-07 22:31 29.94668 -82.61453 35021 ft 436 kts 345°
2026-05-07 22:31 30.00655 -82.62215 35016 ft 436 kts 345°
2026-05-07 22:32 30.06679 -82.62983 35015 ft 436 kts 345°
2026-05-07 22:32 30.12706 -82.63756 35013 ft 435 kts 345°
2026-05-07 22:33 30.18725 -82.64524 35012 ft 435 kts 345°
2026-05-07 22:33 30.24703 -82.65289 35012 ft 435 kts 345°
2026-05-07 22:34 30.30726 -82.66050 35010 ft 435 kts 345°
2026-05-07 22:34 30.36750 -82.66816 35017 ft 435 kts 345°
2026-05-07 22:35 30.42771 -82.67598 35021 ft 435 kts 345°
2026-05-07 22:35 30.48811 -82.68361 35132 ft 440 kts 347°
2026-05-07 22:35 30.51914 -82.68344 35388 ft 452 kts 357°
2026-05-07 22:36 30.55005 -82.67785 35656 ft 458 kts
2026-05-07 22:36 30.58139 -82.67116 35932 ft 458 kts
2026-05-07 22:36 30.61277 -82.66443 36206 ft 458 kts
2026-05-07 22:36 30.64404 -82.65771 36473 ft 457 kts
2026-05-07 22:37 30.67532 -82.65102 36728 ft 457 kts
2026-05-07 22:37 30.70648 -82.64438 36948 ft 457 kts
2026-05-07 22:37 30.73775 -82.63771 37012 ft 457 kts
2026-05-07 22:38 30.79985 -82.62445 37001 ft 457 kts
2026-05-07 22:38 30.86238 -82.61106 36989 ft 457 kts
2026-05-07 22:39 30.92496 -82.59759 36989 ft 457 kts
2026-05-07 22:39 30.98757 -82.58418 36989 ft 458 kts
2026-05-07 22:40 31.04986 -82.57089 36992 ft 458 kts
2026-05-07 22:40 31.11162 -82.54816 36986 ft 479 kts 19°
2026-05-07 22:41 31.17090 -82.51200 36993 ft 481 kts 19°
2026-05-07 22:41 31.23019 -82.47595 36994 ft 481 kts 19°
2026-05-07 22:42 31.28961 -82.43992 36996 ft 481 kts 18°
2026-05-07 22:42 31.34864 -82.40396 36998 ft 482 kts 18°
2026-05-07 22:43 31.40805 -82.36775 36987 ft 482 kts 18°
2026-05-07 22:43 31.46752 -82.33150 36990 ft 482 kts 18°
2026-05-07 22:44 31.52658 -82.29538 36987 ft 482 kts 18°
2026-05-07 22:44 31.58596 -82.25898 36978 ft 482 kts 18°
2026-05-07 22:45 31.64535 -82.22253 36971 ft 481 kts 18°
2026-05-07 22:45 31.70472 -82.18607 36972 ft 481 kts 18°
2026-05-07 22:46 31.76365 -82.14982 36967 ft 481 kts 17°
2026-05-07 22:46 31.82294 -82.11328 36973 ft 481 kts 17°
2026-05-07 22:47 31.88223 -82.07655 36975 ft 481 kts 17°
2026-05-07 22:47 31.94147 -82.03985 36978 ft 481 kts 17°
2026-05-07 22:48 32.00073 -82.00334 36976 ft 480 kts 17°
2026-05-07 22:48 32.05957 -81.96708 36970 ft 480 kts 17°
2026-05-07 22:49 32.11874 -81.93046 36961 ft 480 kts 17°
2026-05-07 22:49 32.14749 -81.90954 36956 ft 493 kts 27°
2026-05-07 22:49 32.17385 -81.88305 36958 ft 502 kts 33°
2026-05-07 22:50 32.22489 -81.82753 36958 ft 502 kts 33°
2026-05-07 22:50 32.27634 -81.77188 36951 ft 501 kts 33°
2026-05-07 22:51 32.32775 -81.71630 36935 ft 501 kts 33°
2026-05-07 22:51 32.37909 -81.66058 36938 ft 501 kts 33°
2026-05-07 22:52 32.43038 -81.60484 36940 ft 501 kts 33°
2026-05-07 22:52 32.48128 -81.54939 36939 ft 500 kts 33°
2026-05-07 22:53 32.53250 -81.49346 36961 ft 500 kts 33°
2026-05-07 22:53 32.58363 -81.43750 36960 ft 500 kts 33°
2026-05-07 22:54 32.63473 -81.38164 36961 ft 500 kts 33°
2026-05-07 22:54 32.68544 -81.32615 36952 ft 499 kts 33°
2026-05-07 22:55 32.73649 -81.27020 36939 ft 499 kts 33°
2026-05-07 22:55 32.78738 -81.21427 36939 ft 499 kts 33°
2026-05-07 22:56 32.83821 -81.15820 36937 ft 499 kts 33°
2026-05-07 22:56 32.88865 -81.10236 36939 ft 498 kts 33°
2026-05-07 22:57 32.93943 -81.04623 36938 ft 498 kts 33°
2026-05-07 22:57 32.99019 -80.99018 36927 ft 498 kts 33°
2026-05-07 22:58 33.04095 -80.93397 36930 ft 498 kts 33°
2026-05-07 22:58 33.09132 -80.87794 36924 ft 498 kts 33°
2026-05-07 22:59 33.14197 -80.82154 36924 ft 498 kts 33°
2026-05-07 22:59 33.19267 -80.76504 36914 ft 498 kts 32°
2026-05-07 23:00 33.24328 -80.70850 36914 ft 498 kts 32°
2026-05-07 23:00 33.29359 -80.65226 36915 ft 498 kts 32°
2026-05-07 23:01 33.34411 -80.59553 36917 ft 498 kts 32°
2026-05-07 23:01 33.39454 -80.53879 36914 ft 498 kts 32°
2026-05-07 23:02 33.44469 -80.48244 36914 ft 497 kts 32°
2026-05-07 23:02 33.46864 -80.45224 36900 ft 509 kts 42°
2026-05-07 23:02 33.48903 -80.41700 36896 ft 521 kts 52°
2026-05-07 23:03 33.52346 -80.34019 36899 ft 523 kts 54°
2026-05-07 23:03 33.55784 -80.26324 36902 ft 523 kts 54°
2026-05-07 23:04 33.59222 -80.18638 36896 ft 523 kts 54°
2026-05-07 23:04 33.62637 -80.10986 36880 ft 523 kts 54°
2026-05-07 23:05 33.66057 -80.03291 36878 ft 523 kts 54°
2026-05-07 23:05 33.69486 -79.95602 36875 ft 522 kts 54°
2026-05-07 23:06 33.72891 -79.87949 36865 ft 523 kts 54°
2026-05-07 23:06 33.76299 -79.80245 36873 ft 523 kts 54°
2026-05-07 23:07 33.79697 -79.72513 36877 ft 523 kts 54°
2026-05-07 23:07 33.83091 -79.64770 36883 ft 523 kts 54°
2026-05-07 23:08 33.86490 -79.57022 36884 ft 524 kts 54°
2026-05-07 23:08 33.89869 -79.49325 36884 ft 524 kts 54°
2026-05-07 23:09 33.93266 -79.41567 36881 ft 524 kts 54°
2026-05-07 23:09 33.96657 -79.33799 36880 ft 524 kts 54°
2026-05-07 23:10 34.00045 -79.26031 36876 ft 524 kts 54°
2026-05-07 23:10 34.03429 -79.18248 36877 ft 523 kts 53°
2026-05-07 23:11 34.07007 -79.10723 36872 ft 518 kts 49°
2026-05-07 23:11 34.10835 -79.03381 36877 ft 516 kts 48°
2026-05-07 23:12 34.14661 -78.96046 36879 ft 517 kts 49°
2026-05-07 23:12 34.18401 -78.88608 36880 ft 519 kts 50°
2026-05-07 23:13 34.22066 -78.81166 36870 ft 519 kts 50°
2026-05-07 23:13 34.25753 -78.73674 36866 ft 518 kts 50°
2026-05-07 23:14 34.29452 -78.66191 36871 ft 518 kts 50°
2026-05-07 23:14 34.33502 -78.59217 36868 ft 498 kts 35°
2026-05-07 23:14 34.35980 -78.56378 36865 ft 484 kts 26°
2026-05-07 23:15 34.38618 -78.53889 36862 ft 480 kts 25°
2026-05-07 23:15 34.43899 -78.48934 36859 ft 481 kts 25°
2026-05-07 23:16 34.49181 -78.43942 36859 ft 482 kts 26°
2026-05-07 23:16 34.54460 -78.38928 36864 ft 482 kts 26°
2026-05-07 23:17 34.59708 -78.33932 36862 ft 483 kts 26°
2026-05-07 23:17 34.64994 -78.28893 36866 ft 483 kts 26°
2026-05-07 23:18 34.70282 -78.23857 36865 ft 484 kts 26°
2026-05-07 23:18 34.75546 -78.18833 36871 ft 484 kts 26°
2026-05-07 23:19 34.80845 -78.13773 36873 ft 484 kts 26°
2026-05-07 23:19 34.86136 -78.08696 36876 ft 485 kts 26°
2026-05-07 23:20 34.91445 -78.03622 36918 ft 485 kts 26°
2026-05-07 23:20 34.96722 -77.98593 36922 ft 485 kts 26°
2026-05-07 23:21 35.02035 -77.93511 36920 ft 486 kts 26°
2026-05-07 23:21 35.07349 -77.88421 36917 ft 486 kts 26°
2026-05-07 23:22 35.12669 -77.83314 36914 ft 487 kts 26°
2026-05-07 23:22 35.17993 -77.78193 36921 ft 487 kts 26°
2026-05-07 23:23 35.23277 -77.73087 36925 ft 488 kts 26°
2026-05-07 23:23 35.28599 -77.67939 36934 ft 488 kts 26°
2026-05-07 23:24 35.33930 -77.62794 36921 ft 488 kts 26°
2026-05-07 23:24 35.39252 -77.57636 36928 ft 489 kts 26°
2026-05-07 23:25 35.44548 -77.52490 36924 ft 489 kts 26°
2026-05-07 23:25 35.49883 -77.47293 36929 ft 490 kts 26°
2026-05-07 23:26 35.55229 -77.42091 36936 ft 491 kts 26°
2026-05-07 23:26 35.60558 -77.36905 37014 ft 497 kts 26°
2026-05-07 23:26 35.63303 -77.34248 36911 ft 506 kts 26°
2026-05-07 23:27 35.68898 -77.28798 36928 ft 519 kts 27°
2026-05-07 23:27 35.74585 -77.23211 36940 ft 525 kts 27°
2026-05-07 23:28 35.80289 -77.17575 36945 ft 526 kts 27°
2026-05-07 23:28 35.85964 -77.11977 36943 ft 527 kts 27°
2026-05-07 23:29 35.91709 -77.06384 36947 ft 521 kts 22°
2026-05-07 23:29 35.94734 -77.04041 36949 ft 510 kts 17°
2026-05-07 23:29 35.97797 -77.01819 36950 ft 511 kts 17°
2026-05-07 23:30 36.03927 -76.97364 36954 ft 512 kts 17°
2026-05-07 23:30 36.10021 -76.92910 36949 ft 512 kts 17°
2026-05-07 23:31 36.16147 -76.88420 36947 ft 513 kts 17°
2026-05-07 23:31 36.22287 -76.83919 36948 ft 513 kts 17°
2026-05-07 23:32 36.28440 -76.79407 36949 ft 514 kts 17°
2026-05-07 23:32 36.34552 -76.74918 36949 ft 514 kts 17°
2026-05-07 23:33 36.40703 -76.70391 36955 ft 515 kts 17°
2026-05-07 23:33 36.46859 -76.65840 36967 ft 515 kts 17°
2026-05-07 23:34 36.53012 -76.61278 36969 ft 515 kts 17°
2026-05-07 23:34 36.59124 -76.56746 36967 ft 515 kts 17°
2026-05-07 23:35 36.65275 -76.52182 36963 ft 515 kts 17°
2026-05-07 23:35 36.71425 -76.47611 36962 ft 515 kts 18°
2026-05-07 23:36 36.77574 -76.43035 36963 ft 515 kts 18°
2026-05-07 23:36 36.83686 -76.38478 36961 ft 515 kts 18°
2026-05-07 23:37 36.89836 -76.33872 36956 ft 515 kts 18°
2026-05-07 23:37 36.95982 -76.29243 36957 ft 516 kts 18°
2026-05-07 23:38 37.02128 -76.24597 36952 ft 516 kts 18°
2026-05-07 23:38 37.08273 -76.19969 36944 ft 515 kts 18°
2026-05-07 23:39 37.14385 -76.15381 36951 ft 515 kts 18°
2026-05-07 23:39 37.20522 -76.10748 36957 ft 516 kts 18°
2026-05-07 23:40 37.26669 -76.06108 36955 ft 516 kts 18°
2026-05-07 23:40 37.32817 -76.01459 36965 ft 516 kts 18°
2026-05-07 23:41 37.38921 -75.96830 36964 ft 516 kts 18°
2026-05-07 23:41 37.45066 -75.92154 36967 ft 516 kts 18°
2026-05-07 23:42 37.51202 -75.87470 36963 ft 516 kts 18°
2026-05-07 23:42 37.57354 -75.82794 36964 ft 516 kts 18°
2026-05-07 23:43 37.63529 -75.78183 36966 ft 515 kts 18°
2026-05-07 23:43 37.69667 -75.73614 36957 ft 516 kts 18°
2026-05-07 23:44 37.75836 -75.68985 36959 ft 516 kts 18°
2026-05-07 23:44 37.82004 -75.64317 36954 ft 517 kts 19°
2026-05-07 23:45 37.88122 -75.59493 36955 ft 521 kts 22°
2026-05-07 23:45 37.94070 -75.54274 36954 ft 525 kts 25°
2026-05-07 23:46 38.00013 -75.48898 36956 ft 524 kts 24°
2026-05-07 23:46 38.05980 -75.43620 36953 ft 522 kts 23°
2026-05-07 23:47 38.12034 -75.38611 36951 ft 518 kts 21°
2026-05-07 23:47 38.18104 -75.33805 36952 ft 517 kts 21°
2026-05-07 23:48 38.24285 -75.29287 36953 ft 502 kts 11°
2026-05-07 23:48 38.27516 -75.27806 36958 ft 486 kts
2026-05-07 23:48 38.30777 -75.26926 36959 ft 474 kts 356°
2026-05-07 23:49 38.37278 -75.25574 36960 ft 474 kts 356°
2026-05-07 23:49 38.43744 -75.24229 36962 ft 474 kts 357°
2026-05-07 23:50 38.50251 -75.22853 36963 ft 474 kts 357°
2026-05-07 23:50 38.56763 -75.21484 36940 ft 474 kts 357°
2026-05-07 23:51 38.63268 -75.20120 36942 ft 474 kts 357°
2026-05-07 23:51 38.69720 -75.18112 36933 ft 495 kts 12°
2026-05-07 23:52 38.72823 -75.16079 36928 ft 510 kts 24°
2026-05-07 23:52 38.75720 -75.13384 36935 ft 517 kts 29°
2026-05-07 23:52 38.81418 -75.07759 36473 ft 516 kts 29°
2026-05-07 23:53 38.84266 -75.04952 35848 ft 517 kts 29°
2026-05-07 23:53 38.87121 -75.02147 35236 ft 517 kts 29°
2026-05-07 23:53 38.89939 -74.99377 34633 ft 518 kts 29°
2026-05-07 23:53 38.92796 -74.96564 34165 ft 515 kts 29°
2026-05-07 23:54 38.95621 -74.93779 33710 ft 512 kts 29°
2026-05-07 23:54 38.98431 -74.90999 33230 ft 508 kts 29°
2026-05-07 23:54 39.01219 -74.88238 32762 ft 504 kts 29°
2026-05-07 23:54 39.03984 -74.85500 32300 ft 500 kts 28°
2026-05-07 23:55 39.06693 -74.82818 31837 ft 496 kts 28°
2026-05-07 23:55 39.09415 -74.80122 31377 ft 492 kts 28°
2026-05-07 23:55 39.12098 -74.77391 30928 ft 490 kts 30°
2026-05-07 23:55 39.14727 -74.74615 30440 ft 489 kts 31°
2026-05-07 23:56 39.17333 -74.71791 29891 ft 489 kts 32°
2026-05-07 23:56 39.19923 -74.68943 29257 ft 489 kts 32°
2026-05-07 23:56 39.22504 -74.66095 28619 ft 488 kts 32°
2026-05-07 23:56 39.25081 -74.63261 28018 ft 486 kts 32°
2026-05-07 23:57 39.27623 -74.60487 27426 ft 484 kts 32°
2026-05-07 23:57 39.30189 -74.57701 26844 ft 482 kts 32°
2026-05-07 23:57 39.32757 -74.54922 26276 ft 480 kts 32°
2026-05-07 23:57 39.35312 -74.52156 25707 ft 478 kts 33°
2026-05-07 23:58 39.37851 -74.49406 25174 ft 475 kts 33°
2026-05-07 23:58 39.40356 -74.46678 24919 ft 466 kts 33°
2026-05-07 23:58 39.42796 -74.44009 24857 ft 452 kts 33°
2026-05-07 23:58 39.45173 -74.41395 24882 ft 446 kts 33°
2026-05-07 23:59 39.47491 -74.38842 24703 ft 442 kts 33°
2026-05-07 23:59 39.49819 -74.36283 24362 ft 438 kts 33°
2026-05-07 23:59 39.52140 -74.33743 24008 ft 435 kts 33°
2026-05-07 23:59 39.54446 -74.31219 23659 ft 432 kts 33°
2026-05-08 00:00 39.56735 -74.28711 23280 ft 429 kts 34°
2026-05-08 00:00 39.59016 -74.26214 22850 ft 427 kts 34°
2026-05-08 00:00 39.61276 -74.23741 22407 ft 424 kts 34°
2026-05-08 00:00 39.63521 -74.21282 21971 ft 421 kts 34°
2026-05-08 00:01 39.65738 -74.18850 21304 ft 425 kts 34°
2026-05-08 00:01 39.68007 -74.16363 20623 ft 429 kts 35°
2026-05-08 00:01 39.70299 -74.13846 19952 ft 433 kts 35°
2026-05-08 00:01 39.72603 -74.11303 19301 ft 436 kts 36°
2026-05-08 00:02 39.74920 -74.08736 18662 ft 439 kts 36°
2026-05-08 00:02 39.77250 -74.06156 18019 ft 441 kts 36°
2026-05-08 00:02 39.79586 -74.03567 17304 ft 443 kts 36°
2026-05-08 00:02 39.81930 -74.00964 16601 ft 444 kts 36°
2026-05-08 00:03 39.84340 -73.98478 15912 ft 440 kts 28°
2026-05-08 00:03 39.86973 -73.96512 15246 ft 436 kts 23°
2026-05-08 00:03 39.89637 -73.94629 14591 ft 435 kts 23°
2026-05-08 00:03 39.92261 -73.92779 13952 ft 433 kts 23°
2026-05-08 00:04 39.94905 -73.90913 13268 ft 432 kts 23°
2026-05-08 00:04 39.97526 -73.89057 12554 ft 424 kts 23°
2026-05-08 00:04 40.00060 -73.87252 11855 ft 405 kts 23°
2026-05-08 00:04 40.02482 -73.85545 11244 ft 386 kts 21°
2026-05-08 00:05 40.04786 -73.84011 11032 ft 358 kts 20°
2026-05-08 00:05 40.06937 -73.82565 10997 ft 341 kts 20°
2026-05-08 00:05 40.09041 -73.81147 11011 ft 342 kts 20°
2026-05-08 00:05 40.11115 -73.79750 10818 ft 337 kts 20°
2026-05-08 00:06 40.13188 -73.78352 10479 ft 334 kts 20°
2026-05-08 00:06 40.15232 -73.76974 10321 ft 324 kts 20°
2026-05-08 00:06 40.17204 -73.75637 10159 ft 315 kts 20°
2026-05-08 00:06 40.19138 -73.74322 9786 ft 315 kts 20°
2026-05-08 00:07 40.21080 -73.73014 9530 ft 309 kts 20°
2026-05-08 00:07 40.23004 -73.71733 8910 ft 309 kts 21°
2026-05-08 00:07 40.24916 -73.70501 8280 ft 304 kts 21°
2026-05-08 00:07 40.26808 -73.69327 7656 ft 298 kts 21°
2026-05-08 00:08 40.28638 -73.68232 7187 ft 288 kts 21°
2026-05-08 00:08 40.30442 -73.67184 6714 ft 279 kts 21°
2026-05-08 00:08 40.32203 -73.66194 6240 ft 271 kts 21°
2026-05-08 00:08 40.33921 -73.65255 5750 ft 265 kts 20°
2026-05-08 00:09 40.35613 -73.64337 5254 ft 262 kts 20°
2026-05-08 00:09 40.37290 -73.63431 4768 ft 259 kts 20°
2026-05-08 00:09 40.38965 -73.62531 4314 ft 262 kts 20°
2026-05-08 00:09 40.40664 -73.61629 3851 ft 266 kts 20°
2026-05-08 00:10 40.42373 -73.60744 3381 ft 260 kts 17°
2026-05-08 00:10 40.44095 -73.60444 2981 ft 249 kts 359°
2026-05-08 00:10 40.45833 -73.60486 2984 ft 251 kts 357°
2026-05-08 00:10 40.47585 -73.60559 2983 ft 252 kts 357°
2026-05-08 00:11 40.49305 -73.60633 2935 ft 242 kts 357°
2026-05-08 00:11 40.50959 -73.60705 2806 ft 233 kts 357°
2026-05-08 00:11 40.52542 -73.60773 2678 ft 223 kts 357°
2026-05-08 00:11 40.54065 -73.60840 2547 ft 214 kts 357°
2026-05-08 00:12 40.55523 -73.60907 2386 ft 206 kts 357°
2026-05-08 00:12 40.56924 -73.61170 2125 ft 203 kts 338°
2026-05-08 00:12 40.58049 -73.62183 1991 ft 197 kts 312°
2026-05-08 00:12 40.58787 -73.63657 1990 ft 191 kts 302°
2026-05-08 00:13 40.59471 -73.65154 1911 ft 190 kts 302°
2026-05-08 00:13 40.60144 -73.66629 1741 ft 185 kts 302°
2026-05-08 00:13 40.60796 -73.68060 1478 ft 181 kts 302°
2026-05-08 00:13 40.61427 -73.69447 1226 ft 170 kts 302°
2026-05-08 00:14 40.62000 -73.70708 1010 ft 153 kts 302°
2026-05-08 00:14 40.62536 -73.71885 811 ft 148 kts 301°
2026-05-08 00:14 40.63049 -73.73013 643 ft 140 kts 301°
2026-05-08 00:14 40.63547 -73.74108 434 ft 140 kts 300°
2026-05-08 00:15 40.64039 -73.75192 253 ft 141 kts 298°
2026-05-08 00:15 40.64551 -73.76300 48 ft 142 kts 296°
2026-05-08 00:15 40.64956 -73.77263 22 ft 83 kts 301°
2026-05-08 00:15 40.65111 -73.77567 20 ft 6 kts 303°
2026-05-08 00:16 40.65126 -73.77598 20 ft 4 kts 303°
2026-05-08 00:16 40.65145 -73.77636 19 ft 11 kts 303°
2026-05-08 00:16 40.65216 -73.77793 20 ft 22 kts 291°
2026-05-08 00:16 40.65203 -73.77935 20 ft 15 kts 201°
2026-05-08 00:17 40.65176 -73.77946 20 ft 0 kts 203°
2026-05-08 00:17 40.65163 -73.77958 20 ft 10 kts 216°
2026-05-08 00:17 40.65097 -73.78003 20 ft 8 kts 151°
2026-05-08 00:17 40.65085 -73.77970 20 ft 10 kts 123°
2026-05-08 00:18 40.65025 -73.77854 20 ft 17 kts 122°
2026-05-08 00:18 40.64968 -73.77722 20 ft 17 kts 120°
2026-05-08 00:18 40.64904 -73.77581 20 ft 15 kts 122°
2026-05-08 00:18 40.64869 -73.77581 20 ft 7 kts 220°
2026-05-08 00:19 40.64815 -73.77583 20 ft 12 kts 129°
2026-05-08 00:19 40.64769 -73.77476 20 ft 15 kts 118°
2026-05-08 00:19 40.64722 -73.77375 20 ft 1 kts 127°
2026-05-08 00:19 40.64715 -73.77364 20 ft 2 kts 127°
2026-05-08 00:20 40.64693 -73.77314 21 ft 5 kts 118°
2026-05-08 00:20 40.64682 -73.77294 20 ft 0 kts 139°
2026-05-08 00:20 40.64681 -73.77294 20 ft 1 kts 154°
2026-05-08 00:20 40.64664 -73.77303 20 ft 4 kts 198°
2026-05-08 00:21 40.64638 -73.77305 20 ft 5 kts 180°
2026-05-08 00:21 40.64622 -73.77305 20 ft 0 kts 181°